TimePST,TemperatureF,Dew PointF,Humidity,Sea Level PressureIn,VisibilityMPH,Wind Direction,Wind SpeedMPH,Gust SpeedMPH,PrecipitationIn,Events,Conditions,WindDirDegrees,DateUTC
12:53 AM,21.0,18.0,88,29.92,10.0,WSW,3.5,-,N/A,,Clear,240,2012-11-08 08:53:00
1:53 AM,23.0,21.0,92,29.89,10.0,South,4.6,-,N/A,,Scattered Clouds,170,2012-11-08 09:53:00
2:53 AM,28.0,26.1,92,29.86,10.0,Calm,Calm,-,N/A,,Overcast,0,2012-11-08 10:53:00
3:53 AM,28.0,26.1,92,29.82,10.0,WSW,3.5,-,N/A,,Overcast,240,2012-11-08 11:53:00
4:53 AM,30.0,28.0,92,29.80,10.0,West,3.5,-,0.00,,Overcast,270,2012-11-08 12:53:00
5:53 AM,30.9,28.9,92,29.78,10.0,West,8.1,-,N/A,,Overcast,260,2012-11-08 13:53:00
6:53 AM,30.9,28.9,92,29.77,10.0,South,3.5,-,N/A,,Overcast,190,2012-11-08 14:53:00
7:53 AM,32.0,28.9,88,29.77,5.0,SSE,3.5,-,0.00,Snow,Light Snow,150,2012-11-08 15:53:00
8:12 AM,32.0,30.2,93,29.70,6.0,SSE,4.6,-,0.00,Snow,Light Snow,150,2012-11-08 16:12:00
8:53 AM,33.1,30.0,89,29.78,10.0,SSE,5.8,-,0.00,,Overcast,160,2012-11-08 16:53:00
9:07 AM,33.8,30.2,87,29.69,2.5,SSE,5.8,-,0.00,Snow,Light Snow,150,2012-11-08 17:07:00
9:25 AM,33.8,30.2,87,29.69,4.0,SE,4.6,-,0.00,Snow,Light Snow,140,2012-11-08 17:25:00
9:53 AM,34.0,32.0,92,29.75,6.0,ESE,4.6,-,0.00,Snow,Light Snow,110,2012-11-08 17:53:00
10:20 AM,33.8,30.2,87,29.68,10.0,Calm,Calm,-,0.00,,Overcast,0,2012-11-08 18:20:00
10:43 AM,35.6,30.2,81,29.67,10.0,Calm,Calm,-,0.00,,Overcast,0,2012-11-08 18:43:00
10:53 AM,35.1,30.9,85,29.73,10.0,Calm,Calm,-,0.00,,Overcast,0,2012-11-08 18:53:00
11:53 AM,37.0,30.0,76,29.71,10.0,WNW,5.8,-,N/A,,Overcast,290,2012-11-08 19:53:00
12:53 PM,37.0,30.0,76,29.72,10.0,NW,4.6,-,N/A,,Overcast,320,2012-11-08 20:53:00
1:18 PM,37.4,30.2,75,29.64,8.0,Calm,Calm,-,0.00,Snow,Light Snow,0,2012-11-08 21:18:00
1:37 PM,37.4,30.2,75,29.64,10.0,Calm,Calm,-,0.00,,Overcast,0,2012-11-08 21:37:00
1:53 PM,37.9,30.0,73,29.70,10.0,Calm,Calm,-,0.00,,Overcast,0,2012-11-08 21:53:00
2:53 PM,37.9,30.0,73,29.69,10.0,NNW,10.4,-,N/A,,Overcast,330,2012-11-08 22:53:00
3:53 PM,37.0,28.9,73,29.71,10.0,NNW,11.5,-,N/A,,Overcast,340,2012-11-08 23:53:00
4:28 PM,35.6,28.4,75,29.67,10.0,NNW,8.1,-,N/A,,Overcast,340,2012-11-09 00:28:00
4:53 PM,35.1,28.0,76,29.73,10.0,North,9.2,-,N/A,,Overcast,350,2012-11-09 00:53:00
5:53 PM,33.1,27.0,78,29.73,10.0,NNW,8.1,-,N/A,,Overcast,340,2012-11-09 01:53:00
6:53 PM,33.1,26.1,75,29.75,10.0,NW,8.1,-,N/A,,Overcast,310,2012-11-09 02:53:00
7:53 PM,30.0,25.0,82,29.75,10.0,WSW,4.6,-,N/A,,Scattered Clouds,250,2012-11-09 03:53:00
8:53 PM,28.9,24.1,82,29.76,10.0,West,5.8,-,N/A,,Partly Cloudy,270,2012-11-09 04:53:00
9:53 PM,27.0,23.0,85,29.74,10.0,West,4.6,-,N/A,,Clear,280,2012-11-09 05:53:00
10:53 PM,27.0,23.0,85,29.76,10.0,WSW,3.5,-,N/A,,Partly Cloudy,240,2012-11-09 06:53:00
11:53 PM,27.0,24.1,89,29.76,10.0,West,6.9,-,N/A,,Overcast,280,2012-11-09 07:53:00